www.pogodaiklimat.ru
ПОГОДА в Мариэтте
Время
и дата
16:56 20.04
17:56 20.04
18:56 20.04
19:56 20.04
20:26 20.04
20:56 20.04
21:56 20.04
22:56 20.04
23:56 20.04
00:56 21.04
01:56 21.04
02:56 21.04
03:56 21.04
04:56 21.04
05:56 21.04
06:56 21.04
07:56 21.04
08:56 21.04
09:56 21.04
11:56 21.04
12:56 21.04
13:56 21.04
14:56 21.04
15:56 21.04
16:56 21.04
17:56 21.04
18:56 21.04
19:56 21.04
20:56 21.04
21:56 21.04
04:56 22.04
05:56 22.04
06:56 22.04
07:56 22.04
08:56 22.04
09:56 22.04
10:56 22.04
11:56 22.04
12:56 22.04
13:56 22.04
14:56 22.04
15:56 22.04
16:56 22.04
17:56 22.04
18:56 22.04
19:56 22.04
20:56 22.04
21:56 22.04
Ветер
(напр.,м/с)
Видим. Явления Облачность Т
(С)
Тd
(С)
f
(%)
Тe
(С)
Тes
(С)
Комфортность P
(гПа)
Po
(гПа)
Тmin
(С)
Tmax
(С)
R
(мм)
R24
(мм)
S
(см)
ЮЗ 1 16 км 5/0 2250 м
[Ac]
+23.5 +4.9 30 +23 +29 комфорт 1012.5 974.2
ЮЗ 1 16 км 2/0 2400 м
[Ac]
+22.2 +4.3 31 +22 +26 комфорт 1012.2 973.9
ЮЗ 1 16 км 2/0 2400 м
[Ac]
+20.7 +5.1 36 +22 +23 комфорт 1012.3 973.9 +20.7 +23.7
Ю 1 16 км 2/0 2400 м
[Ac]
+18.0 +6.5 47 +19 +19 1012.6 974.2
ЮЗ 1 4 км мгла ясно +18.0 +6.0 45 +19 +19 1012.9 974.5
ЮЗ 1 16 км 2/0 2400 м
[Ac]
+17.7 +6.2 47 +18 +18 1013.1 974.8
З 2 16 км 2/0 2400 м
[Ac]
+15.5 +7.3 58 +15 +15 1013.5 975.2
З 1 16 км 5/0 2400 м
[Ac]
+15.6 +6.8 56 +16 +16 1013.4 975.2
штиль 0 16 км 2/0 2400 м
[Ac]
+14.3 +7.8 65 +14 +14 1013.1 974.8
штиль 0 16 км 2/0 2250 м
[Ac]
+13.8 +7.8 67 +14 +14 1013.1 974.8 +13.5 +20.6
З 1 10 км мгла ясно +12.5 +7.2 70 +11 +11 1012.8 974.5
штиль 0 16 км ясно +11.9 +7.2 73 +11 +11 1012.1 973.9
штиль 0 16 км ясно +11.0 +6.5 74 +10 +10 1012.5 974.2
З 2 16 км ясно +12.1 +6.2 67 +10 +10 1012.7 974.5
СЗ 3 16 км 2/0 3600 м
[Ac Ci]
+11.9 +5.7 66 +9 +9 1013.5 975.2
СЗ 3
{5}
16 км 2/2 600 м
[Ac]
+10.9 +5.2 68 +8 +8 1014.9 976.5 +10.4 +13.7
СЗ 3 16 км 2/2 750 м
[Ac]
+11.1 +3.9 61 +8 +9 1015.4 976.8
СЗ 4
{5}
16 км 2/2 750 м +11.3 +3.3 58 +8 +9 1016.1 977.5
СЗ 4
{7}
16 км 2/2 780 м +11.9 +2.9 54 +9 +9 1016.8 978.1
З 4
{6}
16 км 2/2 1050 м +11.5 +0.9 48 +8 +10 1018.2 979.4
СЗ 3
{4}
16 км 2/2 1200 м +12.6 +0.7 44 +10 +16 1017.9 979.1 +10.7 +12.8
СЗ 4
{5}
16 км 2/2 1350 м +11.8 -2.1 38 +9 +12 1018.0 979.1
СЗ 3
{6}
16 км 2/2 1350 м +12.3 -2.7 35 +10 +16 1018.0 979.1
З 4
{4}
16 км 2/2 1500 м +12.7 -3.2 33 +10 +11 1017.6 978.8
СЗ 3
{5}
16 км 2/2 1500 м +12.2 -4.0 32 +10 +12 1018.0 979.1
СЗ 4
{4}
16 км ясно +11.3 -4.0 34 +8 +9 1018.4 979.4
СЗ 3
{4}
16 км ясно +9.9 -4.1 37 +7 +8 1019.1 980.1 +9.9 +12.8
СЗ 2
{4}
16 км ясно +8.4 -4.4 40 +6 +6 1020.1 981.0
С 3 16 км ясно +7.2 -3.9 45 +3 +3 1021.0 981.7
С 1 16 км ясно +6.4 -4.7 45 +4 +4 1021.6 982.3
штиль 0 16 км ясно +1.3 -2.1 78 0 0 1022.5 983.0
штиль 0 16 км ясно +1.0 -1.9 81 0 0 1022.2 982.7
штиль 0 16 км ясно +2.4 -1.0 78 +2 +2 1023.3 983.6 +0.4 +4.5
штиль 0 16 км ясно +7.5 -3.4 46 +7 +8 1024.1 984.6
С 1 16 км 2/0 4500 м
[Ac]
+9.5 -6.0 33 +9 +12 1024.4 984.9
С 1 16 км ясно +11.1 -6.7 28 +11 +18 1024.7 985.3
Ю 1 16 км 2/0 4500 м
[Ac]
+12.2 -6.8 26 +12 +23 опасность
простуды
1024.4 984.9
З 1 16 км 2/0 3600 м
[Ac]
+13.3 -5.8 26 +13 +27 опасность
простуды
1023.7 984.3
штиль 0 16 км 2/0 3600 м
[Ac]
+14.1 -5.1 26 +14 +36 опасность
простуды
1023.0 983.6 +2.5 +14.8
З 1 16 км 2/0 3600 м
[Ac Ci]
+14.8 -4.0 27 +14 +28 опасность
простуды
1022.3 983.0
СЗ 3
{4}
16 км 2/0 3600 м
[Ac Ci]
+16.0 -4.0 25 +15 +21 1021.6 982.3
З 2 16 км 2/0 7500 м
[Ci]
+16.1 -3.9 25 +16 +24 1020.9 981.7
З 2 16 км 2/0 7500 м
[Ci]
+16.1 -3.4 26 +15 +20 1020.6 981.4
З 2 16 км 2/0 7500 м
[Ci]
+15.4 -3.0 28 +15 +18 1020.3 981.0
З 1 16 км 2/0 7500 м
[Ci]
+13.7 -2.7 32 +14 +15 1020.0 980.7 +13.7 +16.4
ЮЗ 1 16 км 2/0 7500 м
[Ci]
+11.4 +0.5 47 +11 +11 1020.6 981.4
штиль 0 16 км ясно +9.8 +0.7 53 +10 +10 1021.5 982.3
штиль 0 16 км ясно +8.7 +1.4 60 +8 +8 1021.5 982.3
Местоположение метеостанции Dobbins Air Force Base: широта 33.9167 долгота -84.5167 высота над уровнем моря 326 м.
В архиве по умолчанию представлена погода в Мариэтте за последние 1-2 суток. Обновление информации о фактической погоде в базе происходит ежечасно! Архивные данные за месяц целиком и за предыдущие месяцы Вы можете получить, выбрав интересующий диапазон дат из раскрывающегося списка и нажав кнопку "Ввод!".
Внимание! Архив погоды МЕТАР в базе сайта по станциям, не включенным в климатический монитор, хранится не более 60 дней. Нет смысла пытаться выбрать более раннюю дату.
*Определитесь, кто Вы:
Внимание! Время в таблицах - местное (без учета летнего времени). Для получения всемирного времени необходимо вычесть поправку, которая равна -5 ч.
Смотрите также архив погоды в соседних городах и на ближайших метеорологических станциях:
Партнеры нашего сайта:      
Пояснения к столбцам:
  • Ветер - указаны скорость ветра в м/с - средняя за 10 мин, порывы в срок и между сроками (в фигурных скобках) и направление, откуда дует ветер: С - северный,
  • СВ - северо-восточный, В - восточный, ЮВ - юго-восточный, Ю - южный, ЮЗ - юго-западный, З - западный, СЗ - северо-западный.
  • Видимость - горизонтальная дальность видимости в метрах или километрах. При видимости от 1 до 10 км при отсутствии осадков обычно наблюдается дымка, при ухудшении видимости до 1 км и менее - туман. В сухую погоду видимость может ухудшаться дымом, пылью или мглою.
  • Явления - указаны атмосферные явления, наблюдавшиеся в срок или в последний час перед сроком; фигурными скобками обозначены явления, наблюдавшиеся между сроками (за 1-3 часа до срока); квадратными скобками обозначены град или гололедные отложения с указанием их диаметра в мм.
  • Облачность - указаны через наклонную черту общая и нижняя облачность в баллах и высота нижней границы облаков в метрах; квадратными скобками обозначены формы облаков: Ci - перистые, Cs - перисто-слоистые, Cc - перисто-кучевые, Ac - высококучевые, As - высокослоистые, Sc - слоисто-кучевые, Ns - слоисто-дождевые, Cu - кучевые, Cb - кучево-дождевые. Подробнее классификацию облаков см. в Атласе облаков (PDF).
  • T - Температура воздуха - температура, измеренная на высоте 2 м над землей.
  • Td - Температура точки росы - температура, при понижении до которой содержащийся в воздухе водяной пар достигнет насыщения.
  • f - Относительная влажность воздуха - влажноcть воздуха, измеренная на высоте 2 м над землей.
  • Te - Эффективная температура - температура, которую ощущает одетый по сезону человек в тени. Характеристика душности погоды. При расчете учитывается влияние влажности воздуха и скорости ветра на теплоощущения человека.
  • Tes - Эффективная температура на солнце - температура, которую ощущает человек, с поправкой на солнечный нагрев. Характеристика знойности погоды. Зависит от высоты солнца над горизонтом, облачности и скорости ветра. Ночью, в пасмурную погоду, а также при ветре 12 м/с и более поправка равна нулю.
  • P - Атмосферное давление - приведенное к уровню моря атмосферное давление.
  • Po - Атмосферное давление - измеренное на уровне метеостанции атмосферное давление.
  • Tmin - Минимальная температура - минимум температуры воздуха на высоте 2 м над землей.
  • Tmax - Максимальная температура - максимум температуры воздуха на высоте 2 м над землей.
  • R - Количество осадков - Количество выпавших осадков за период времени, мм. При наведении курсора мыши на число - период времени, за который выпало указанное количество осадков.
  • R24 - Количество осадков - Количество выпавших осадков за 24 часа, мм.
  • S - Снежный покров - Высота снежного покрова, см. При наведении курсора мыши на число - состояние снежного покрова и степень покрытия местности в баллах.